When you browse on this site, cookies collect data to enhance your experience and personalize the content and advertising you see.
Visit our Privacy Policy to learn more. By continuing to use the site, you agree to this use of cookies and data.
  • In Österreich
  • Länderverzeichnis
  • Für 7 Tage
  • Wassertemperatur
  • Satellitenkarten
  • Wetterkarte
  • News
  • Widgets
  • user-avatar
    Anmelden

    Stündliche Wetter Darwin

    Heute, 26 Mai, Sonntag

    Zeit Temperatur Niederschläge Wind Luftdruck Luftfeuchtigkeit
    00:00 +27°C° 0 mm 1 m/S 759 mmHg 68%
    01:00 +27°C° 0 mm 2 m/S 759 mmHg 68%
    02:00 +26°C° 0 mm 2 m/S 759 mmHg 69%
    03:00 +26°C° 0 mm 3 m/S 759 mmHg 69%
    04:00 +26°C° 0 mm 3 m/S 759 mmHg 71%
    05:00 +26°C° 0 mm 3 m/S 759 mmHg 73%
    06:00 +25°C° 0 mm 4 m/S 759 mmHg 76%
    07:00 +27°C° 0 mm 4 m/S 759 mmHg 69%
    08:00 +28°C° 0 mm 4 m/S 760 mmHg 63%
    09:00 +30°C° 0 mm 5 m/S 760 mmHg 57%
    10:00 +33°C° 0 mm 5 m/S 759 mmHg 49%
    11:00 +34°C° 0 mm 5 m/S 759 mmHg 41%
    12:00 +36°C° 0 mm 4 m/S 758 mmHg 32%
    13:00 +37°C° 0 mm 4 m/S 758 mmHg 32%
    14:00 +37°C° 0 mm 4 m/S 757 mmHg 31%
    15:00 +37°C° 0 mm 3 m/S 757 mmHg 30%
    16:00 +35°C° 0 mm 3 m/S 757 mmHg 35%
    17:00 +34°C° 0 mm 3 m/S 757 mmHg 39%
    18:00 +31°C° 0 mm 3 m/S 757 mmHg 44%
    19:00 +30°C° 0 mm 3 m/S 758 mmHg 46%
    20:00 +29°C° 0 mm 2 m/S 758 mmHg 48%
    21:00 +29°C° 0 mm 2 m/S 759 mmHg 49%
    22:00 +28°C° 0 mm 2 m/S 759 mmHg 49%
    23:00 +28°C° 0 mm 2 m/S 759 mmHg 49%

    Morgen, 27 Mai, Montag

    Zeit Temperatur Niederschläge Wind Luftdruck Luftfeuchtigkeit
    00:00 +28°C° 0 mm 2 m/S 759 mmHg 49%
    01:00 +27°C° 0 mm 2 m/S 759 mmHg 51%
    02:00 +26°C° 0 mm 3 m/S 759 mmHg 53%
    03:00 +26°C° 0 mm 3 m/S 759 mmHg 55%
    04:00 +25°C° 0 mm 3 m/S 759 mmHg 58%
    05:00 +25°C° 0 mm 4 m/S 759 mmHg 61%
    06:00 +23°C° 0 mm 4 m/S 759 mmHg 63%
    07:00 +26°C° 0 mm 4 m/S 760 mmHg 58%
    08:00 +28°C° 0 mm 4 m/S 760 mmHg 53%
    09:00 +29°C° 0 mm 5 m/S 760 mmHg 48%
    10:00 +32°C° 0 mm 5 m/S 760 mmHg 41%
    11:00 +34°C° 0 mm 5 m/S 759 mmHg 34%
    12:00 +36°C° 0 mm 5 m/S 759 mmHg 27%
    13:00 +36°C° 0 mm 5 m/S 758 mmHg 27%
    14:00 +36°C° 0 mm 4 m/S 758 mmHg 28%
    15:00 +36°C° 0 mm 4 m/S 757 mmHg 28%
    16:00 +35°C° 0 mm 3 m/S 757 mmHg 32%
    17:00 +33°C° 0 mm 3 m/S 757 mmHg 35%
    18:00 +31°C° 0 mm 2 m/S 758 mmHg 39%
    19:00 +30°C° 0 mm 3 m/S 758 mmHg 41%
    20:00 +29°C° 0 mm 3 m/S 759 mmHg 43%
    21:00 +28°C° 0 mm 3 m/S 759 mmHg 45%
    22:00 +28°C° 0 mm 3 m/S 759 mmHg 46%
    23:00 +27°C° 0 mm 4 m/S 760 mmHg 48%

    übermorgen, 28 Mai, Dienstag

    Zeit Temperatur Niederschläge Wind Luftdruck Luftfeuchtigkeit
    00:00 +27°C° 0 mm 4 m/S 760 mmHg 49%
    01:00 +26°C° 0 mm 4 m/S 759 mmHg 50%
    02:00 +26°C° 0 mm 4 m/S 759 mmHg 52%
    03:00 +25°C° 0 mm 5 m/S 759 mmHg 53%
    04:00 +25°C° 0 mm 5 m/S 759 mmHg 53%
    05:00 +23°C° 0 mm 5 m/S 759 mmHg 54%
    06:00 +23°C° 0 mm 5 m/S 759 mmHg 54%
    07:00 +24°C° 0 mm 6 m/S 760 mmHg 52%
    08:00 +27°C° 0 mm 6 m/S 760 mmHg 50%
    09:00 +28°C° 0 mm 7 m/S 760 mmHg 48%
    10:00 +30°C° 0 mm 6 m/S 760 mmHg 45%
    11:00 +33°C° 0 mm 6 m/S 760 mmHg 42%
    12:00 +34°C° 0 mm 6 m/S 759 mmHg 39%
    13:00 +35°C° 0 mm 5 m/S 759 mmHg 38%
    14:00 +35°C° 0 mm 5 m/S 758 mmHg 37%
    15:00 +35°C° 0 mm 4 m/S 757 mmHg 35%
    16:00 +34°C° 0 mm 4 m/S 758 mmHg 38%
    17:00 +33°C° 0 mm 3 m/S 758 mmHg 40%
    18:00 +30°C° 0 mm 3 m/S 758 mmHg 42%
    19:00 +29°C° 0 mm 3 m/S 758 mmHg 44%
    20:00 +28°C° 0 mm 4 m/S 759 mmHg 45%
    21:00 +27°C° 0 mm 4 m/S 760 mmHg 47%
    22:00 +27°C° 0 mm 4 m/S 760 mmHg 48%
    23:00 +26°C° 0 mm 5 m/S 760 mmHg 49%

    29 Mai, Mittwoch

    Zeit Temperatur Niederschläge Wind Luftdruck Luftfeuchtigkeit
    00:00 +26°C° 0 mm 5 m/S 760 mmHg 51%
    01:00 +25°C° 0 mm 5 m/S 759 mmHg 54%
    02:00 +25°C° 0 mm 5 m/S 759 mmHg 57%
    03:00 +23°C° 0 mm 5 m/S 759 mmHg 60%
    04:00 +23°C° 0 mm 5 m/S 759 mmHg 62%
    05:00 +22°C° 0 mm 5 m/S 759 mmHg 63%
    06:00 +22°C° 0 mm 6 m/S 759 mmHg 64%
    07:00 +24°C° 0 mm 6 m/S 760 mmHg 60%
    08:00 +26°C° 0 mm 6 m/S 760 mmHg 55%
    09:00 +28°C° 0 mm 7 m/S 760 mmHg 51%
    10:00 +30°C° 0 mm 6 m/S 760 mmHg 46%
    11:00 +32°C° 0 mm 5 m/S 759 mmHg 41%
    12:00 +34°C° 0 mm 5 m/S 759 mmHg 36%
    13:00 +35°C° 0 mm 4 m/S 758 mmHg 35%
    14:00 +35°C° 0 mm 3 m/S 758 mmHg 33%
    15:00 +36°C° 0 mm 3 m/S 757 mmHg 32%
    16:00 +34°C° 0 mm 2 m/S 757 mmHg 36%
    17:00 +31°C° 0 mm 2 m/S 757 mmHg 40%
    18:00 +30°C° 0 mm 2 m/S 758 mmHg 44%
    19:00 +29°C° 0 mm 1 m/S 758 mmHg 46%
    20:00 +28°C° 0 mm 1 m/S 759 mmHg 48%
    21:00 +27°C° 0 mm 1 m/S 760 mmHg 51%
    22:00 +27°C° 0 mm 1 m/S 760 mmHg 51%
    23:00 +26°C° 0 mm 2 m/S 760 mmHg 51%

    30 Mai, Donnerstag

    Zeit Temperatur Niederschläge Wind Luftdruck Luftfeuchtigkeit
    00:00 +26°C° 0 mm 2 m/S 760 mmHg 52%
    01:00 +25°C° 0 mm 3 m/S 759 mmHg 53%
    02:00 +25°C° 0 mm 3 m/S 759 mmHg 53%
    03:00 +25°C° 0 mm 4 m/S 759 mmHg 54%
    04:00 +23°C° 0 mm 4 m/S 759 mmHg 55%
    05:00 +23°C° 0 mm 5 m/S 759 mmHg 57%
    06:00 +23°C° 0 mm 5 m/S 759 mmHg 58%
    07:00 +24°C° 0 mm 6 m/S 760 mmHg 54%
    08:00 +27°C° 0 mm 6 m/S 760 mmHg 50%
    09:00 +28°C° 0 mm 7 m/S 761 mmHg 46%
    10:00 +30°C° 0 mm 6 m/S 760 mmHg 42%
    11:00 +33°C° 0 mm 5 m/S 760 mmHg 38%
    12:00 +34°C° 0 mm 4 m/S 759 mmHg 33%
    13:00 +35°C° 0 mm 4 m/S 759 mmHg 32%
    14:00 +35°C° 0 mm 3 m/S 758 mmHg 31%
    15:00 +36°C° 0 mm 3 m/S 758 mmHg 30%
    16:00 +34°C° 0 mm 2 m/S 758 mmHg 33%
    17:00 +32°C° 0 mm 2 m/S 758 mmHg 36%
    18:00 +30°C° 0 mm 2 m/S 759 mmHg 40%
    19:00 +30°C° 0 mm 3 m/S 759 mmHg 39%
    20:00 +29°C° 0 mm 4 m/S 760 mmHg 39%
    21:00 +28°C° 0 mm 5 m/S 760 mmHg 38%
    22:00 +28°C° 0 mm 6 m/S 760 mmHg 39%
    23:00 +27°C° 0 mm 7 m/S 760 mmHg 39%

    31 Mai, Freitag

    Zeit Temperatur Niederschläge Wind Luftdruck Luftfeuchtigkeit
    00:00 +27°C° 0 mm 8 m/S 760 mmHg 39%
    01:00 +26°C° 0 mm 8 m/S 760 mmHg 40%
    02:00 +24°C° 0 mm 7 m/S 760 mmHg 41%
    03:00 +24°C° 0 mm 7 m/S 760 mmHg 42%
    04:00 +24°C° 0 mm 7 m/S 760 mmHg 41%
    05:00 +23°C° 0 mm 7 m/S 760 mmHg 41%
    06:00 +23°C° 0 mm 7 m/S 761 mmHg 41%
    07:00 +24°C° 0 mm 8 m/S 761 mmHg 39%
    08:00 +26°C° 0 mm 8 m/S 761 mmHg 36%
    09:00 +27°C° 0 mm 8 m/S 762 mmHg 34%
    10:00 +29°C° 0 mm 7 m/S 761 mmHg 32%
    11:00 +30°C° 0 mm 7 m/S 761 mmHg 31%
    12:00 +33°C° 0 mm 6 m/S 760 mmHg 29%
    13:00 +34°C° 0 mm 5 m/S 759 mmHg 29%
    14:00 +34°C° 0 mm 5 m/S 759 mmHg 29%
    15:00 +35°C° 0 mm 4 m/S 758 mmHg 29%
    16:00 +33°C° 0 mm 4 m/S 759 mmHg 32%
    17:00 +32°C° 0 mm 4 m/S 759 mmHg 35%
    18:00 +30°C° 0 mm 4 m/S 759 mmHg 38%
    19:00 +29°C° 0 mm 5 m/S 760 mmHg 39%
    20:00 +28°C° 0 mm 6 m/S 760 mmHg 39%
    21:00 +27°C° 0 mm 7 m/S 761 mmHg 40%
    22:00 +26°C° 0 mm 7 m/S 761 mmHg 40%
    23:00 +26°C° 0 mm 7 m/S 761 mmHg 39%
    Mehr zeigen